Wind_Speed
96 95 94 88 80 88 95 92 91 89 88 85 79 79 77 71 70 71 72 70 68 68 66 66 64 62 62 61 58 53 51 51 51 52 49 46 45 47 46 45 45 45 43 40 38 35 33 31 30 30 31 32 33 34 34 33 31 30 31 28 24 22 21 21 22 21 21 19 19 21 21 19 17 16 17 18 19 20 21 20 19 19 19 19 18 18 17 16
95 94 94 91 82 81 90 93 92 90 88 87 82 81 79 71 67 67 70 72 70 69 67 66 66 63 62 63 58 53 52 52 53 53 52 51 50 49 47 45 45 45 44 41 38 37 35 34 32 30 31 32 32 33 34 33 32 31 31 28 24 24 25 24 23 23 21 20 20 21 22 20 18 17 17 18 20 21 21 21 20 19 19 19 19 18 18 17
94 94 91 91 87 80 84 91 93 91 89 88 84 82 77 69 66 66 67 71 71 70 69 67 67 65 63 64 61 56 54 54 55 52 52 54 52 48 46 44 43 43 44 42 39 38 36 35 33 31 31 32 31 32 34 33 33 33 31 28 26 27 27 26 25 24 23 21 21 22 23 22 19 17 18 19 20 20 22 23 23 21 21 21 20 19 19 18
91 94 89 85 89 85 82 91 93 91 90 87 85 83 77 69 67 68 66 69 71 70 70 67 67 66 64 66 65 59 55 56 55 50 52 56 54 49 46 45 43 42 42 41 39 38 37 37 35 34 33 32 32 31 32 32 33 34 32 30 29 29 30 28 25 24 23 22 22 23 23 23 21 18 19 20 20 21 23 25 25 24 23 23 22 21 19 19
89 92 90 80 85 89 82 88 93 91 91 87 85 82 79 75 68 67 67 68 71 72 71 69 68 67 66 68 69 63 59 58 53 47 52 59 58 53 48 47 46 44 42 41 40 39 39 39 38 37 34 33 32 31 30 30 31 33 32 32 31 31 31 30 27 25 24 23 23 24 24 25 23 20 20 21 22 25 26 26 25 24 24 23 22 20 20 19
89 90 92 80 79 90 82 82 91 92 91 88 86 81 79 81 73 66 68 68 69 72 73 71 69 69 68 69 71 69 64 61 54 49 53 58 60 57 52 50 49 45 43 42 41 40 40 40 40 39 37 34 33 32 30 30 32 33 34 34 32 32 33 32 29 27 25 23 24 25 26 27 24 21 22 23 26 28 27 25 24 23 23 22 19 19 19 18
89 88 93 85 79 89 84 77 86 91 92 89 87 81 73 80 81 71 68 69 67 70 74 73 71 70 70 71 73 74 70 65 59 56 55 55 58 57 54 53 51 47 44 43 42 41 41 42 42 41 39 36 35 33 30 31 33 34 36 35 34 33 34 35 31 27 26 25 24 25 27 27 25 24 23 24 28 28 25 25 24 23 22 21 21 20 20 19
89 88 91 92 86 89 88 78 80 88 92 90 88 83 72 75 85 78 69 71 67 67 72 73 73 71 72 73 74 76 73 68 65 64 61 58 57 55 54 55 52 49 46 44 44 43 43 43 43 42 42 39 36 35 32 31 32 33 35 35 35 35 35 36 33 29 27 26 26 26 28 28 27 26 23 26 29 27 25 26 25 24 23 23 23 23 22 21
86 88 89 93 91 88 89 83 78 84 90 92 88 86 79 73 81 83 74 74 70 66 68 71 72 73 73 73 74 76 73 69 69 67 65 61 59 55 52 54 53 51 48 45 45 45 43 43 44 43 44 42 39 37 34 33 33 32 33 35 36 36 36 37 36 34 30 29 27 28 29 29 29 27 25 28 29 26 26 26 26 26 26 25 25 23 23 22
82 86 88 91 92 89 90 88 82 83 88 92 89 87 86 74 75 83 79 77 72 66 65 67 70 73 74 75 76 76 72 71 72 69 67 64 62 58 53 54 53 51 49 46 46 46 44 42 44 45 46 45 42 39 36 34 33 32 32 33 35 37 38 38 37 36 34 31 29 30 30 30 31 29 27 29 27 26 27 27 28 28 28 27 26 25 24 22
78 83 86 88 94 92 91 91 83 82 85 90 91 88 87 78 71 77 79 80 75 67 64 62 66 71 73 76 77 75 71 72 73 71 70 67 65 61 57 55 54 52 50 48 47 46 46 45 46 47 47 46 44 42 39 35 33 33 32 33 33 35 38 39 38 37 35 34 31 31 31 32 33 30 29 30 28 27 29 29 29 29 29 28 27 26 25 23
74 80 84 86 94 94 92 93 80 75 79 85 92 89 87 83 73 72 76 79 76 69 65 61 63 68 70 75 77 74 72 72 71 72 71 69 68 65 61 59 56 55 53 51 49 48 48 47 47 47 48 48 46 45 42 38 35 34 34 34 34 35 37 39 39 38 37 36 33 32 32 33 34 31 31 31 29 29 30 30 30 30 30 29 28 27 25 24
68 76 82 83 92 94 93 97 84 72 72 78 90 90 87 85 76 72 72 74 74 69 65 64 62 64 68 71 72 72 74 74 73 72 72 70 70 67 64 62 60 58 56 54 52 51 50 49 49 49 49 50 49 47 44 39 37 36 35 36 36 36 37 38 40 40 40 39 36 34 33 33 33 32 33 33 30 31 31 31 31 31 31 30 28 27 26 24
63 71 79 82 88 95 97 102 93 77 70 72 85 91 88 85 77 72 69 69 72 69 63 64 63 62 66 67 65 69 73 76 77 74 73 71 70 69 66 64 62 60 57 55 53 53 52 52 52 52 51 52 51 49 46 41 40 39 38 38 38 37 37 37 39 41 41 42 40 38 35 33 33 33 35 36 34 33 32 32 33 33 32 31 29 28 27 25
59 66 75 81 85 91 98 105 103 88 74 68 80 90 89 87 79 70 66 67 71 69 62 61 63 63 66 67 65 67 71 76 78 77 75 73 71 69 67 65 63 61 58 56 54 53 53 53 53 53 52 51 50 50 47 43 41 40 40 39 38 37 35 36 38 40 42 43 42 42 39 35 34 35 37 39 37 35 34 34 34 34 33 31 30 30 29 28
55 63 70 78 83 87 94 105 108 99 83 69 75 88 89 88 83 71 63 66 70 72 67 60 60 65 67 67 67 67 71 75 78 78 77 75 72 70 67 66 64 62 60 58 56 54 54 54 54 53 52 50 49 49 47 44 42 42 41 40 38 36 34 34 36 37 40 41 41 42 42 39 37 38 40 42 40 37 36 36 36 35 34 33 32 32 32 30
51 60 67 74 81 85 90 101 108 105 93 76 71 84 90 88 87 76 61 64 70 67 67 60 55 62 65 65 66 68 71 74 77 78 78 77 74 72 69 67 66 64 63 60 58 56 55 55 54 53 51 50 49 48 48 47 46 45 43 40 36 35 33 32 33 34 35 37 38 40 42 42 41 41 44 44 43 40 38 38 38 38 37 36 35 34 34 32
48 55 64 71 78 83 86 96 106 107 101 86 72 79 91 90 91 86 64 64 69 56 57 62 58 62 64 60 61 65 68 71 74 77 78 78 75 73 70 67 66 65 64 62 60 58 57 55 54 54 52 51 50 49 49 47 45 45 43 38 35 34 33 31 31 32 33 33 33 35 40 43 43 43 46 46 45 44 42 42 41 40 39 38 37 35 35 34
47 52 60 67 75 81 84 92 103 106 104 96 80 76 91 94 93 93 74 68 72 60 57 65 65 63 60 55 55 58 60 63 69 74 76 77 75 72 70 68 67 66 65 63 61 59 58 56 55 55 54 52 50 48 46 44 42 42 43 40 38 36 34 32 32 33 34 33 33 32 34 39 41 44 47 47 46 46 45 44 43 42 41 40 38 37 36 35
47 50 56 63 71 79 82 88 99 105 105 104 93 80 89 98 94 94 83 71 71 64 59 63 64 61 54 52 54 54 54 56 60 66 71 74 74 72 70 69 68 67 66 64 62 60 58 58 57 55 53 50 46 43 43 43 43 44 44 44 41 38 36 34 34 36 36 36 35 34 33 34 35 40 46 48 48 48 47 46 45 44 44 42 40 39 39 37
47 49 54 60 67 75 81 85 95 103 103 106 104 88 87 97 96 94 83 72 70 63 59 62 59 59 57 54 54 54 53 54 55 58 64 70 72 72 71 70 70 69 67 65 63 61 60 59 57 55 52 48 45 44 45 46 46 46 45 45 44 41 39 37 36 37 37 35 35 36 36 34 32 35 44 49 49 49 49 48 48 47 46 44 43 43 42 40
47 48 52 57 64 72 78 83 92 100 100 102 107 95 86 92 96 94 81 71 72 63 56 61 58 56 59 57 55 54 53 55 56 57 61 67 70 72 72 71 71 69 67 66 65 63 62 60 57 54 51 48 47 47 47 47 46 47 46 46 46 44 41 38 37 37 37 35 34 35 36 37 34 32 38 47 50 49 49 50 50 49 48 47 46 45 44 43
48 49 51 54 61 68 75 81 89 99 98 96 106 99 84 87 97 99 84 69 72 65 53 55 59 58 60 60 58 54 53 54 56 58 61 65 67 68 70 71 71 70 68 67 65 64 62 58 54 52 49 47 47 46 46 46 46 46 46 46 45 44 42 38 37 37 36 35 33 34 35 36 36 33 34 42 49 50 50 51 51 51 50 48 47 46 45 44
50 51 51 53 58 65 73 80 87 98 98 93 103 101 86 86 97 103 94 74 68 69 61 54 57 63 64 61 57 54 53 52 51 54 59 63 65 65 66 67 67 67 66 65 62 60 57 51 47 46 46 46 46 46 46 45 45 45 44 44 43 43 42 39 38 38 37 35 33 33 35 34 35 35 33 37 45 49 51 52 52 52 51 50 49 48 45 43
50 52 53 54 57 63 71 78 84 95 98 93 99 104 92 87 94 101 101 89 74 67 67 63 60 67 71 67 61 56 53 53 51 50 53 56 59 62 63 62 62 61 60 59 57 56 54 49 46 45 45 45 46 46 45 44 43 43 43 42 41 41 42 42 41 40 39 37 34 33 35 33 32 34 33 35 41 46 50 53 53 53 52 51 51 49 46 44
50 52 54 55 57 62 69 75 81 91 97 93 96 104 98 88 88 92 95 99 93 75 66 67 66 69 75 77 73 63 56 56 54 50 49 48 48 51 55 57 58 57 55 53 53 53 51 48 47 47 46 45 44 44 43 43 43 43 41 40 40 39 41 41 41 41 40 38 35 34 35 33 32 32 33 35 39 43 47 51 54 55 54 52 52 49 47 45
51 52 55 57 59 62 66 71 77 88 95 93 92 99 101 92 83 81 83 93 102 93 75 67 66 67 70 76 78 72 65 62 58 54 51 48 47 47 49 51 52 53 53 52 52 52 49 48 48 47 47 46 45 43 42 41 41 40 38 38 38 38 39 40 40 41 40 38 37 35 35 35 32 31 33 34 35 38 44 48 51 55 56 54 52 49 46 45
51 53 55 57 60 61 63 68 75 86 93 89 85 89 99 99 87 81 81 86 97 102 90 74 67 66 67 69 75 77 74 67 64 62 58 54 53 52 50 48 48 47 47 49 51 50 48 47 46 45 44 43 41 40 40 39 38 37 36 37 37 37 39 40 41 42 41 41 39 35 36 37 33 30 33 35 33 33 37 43 47 52 57 57 54 51 47 45
51 54 56 58 61 60 62 67 72 84 89 82 78 82 92 99 96 90 87 87 91 95 96 89 76 69 70 70 72 78 80 75 71 67 63 61 60 57 54 52 50 48 45 44 44 46 46 45 43 42 41 38 36 38 39 38 38 38 38 39 38 39 40 40 42 42 42 43 40 36 36 39 35 30 32 35 34 32 33 37 42 48 53 57 57 54 50 47
51 53 55 58 61 61 63 66 70 79 82 78 76 81 88 92 95 94 89 86 87 85 89 96 89 78 73 73 73 76 80 82 80 75 68 64 62 61 58 55 53 51 49 46 45 44 44 44 44 44 42 39 39 40 40 40 40 41 42 42 41 41 41 42 44 43 45 46 41 37 37 39 38 33 30 32 33 33 34 36 40 44 49 54 57 57 53 50
52 52 55 58 60 62 64 64 67 73 77 73 71 77 85 86 89 93 90 86 85 81 79 85 91 87 77 73 75 75 77 80 81 83 78 69 65 63 61 58 55 52 51 50 48 46 45 46 46 45 44 44 46 45 43 43 44 44 44 44 44 43 44 45 46 46 47 46 41 38 37 39 40 35 30 30 30 31 34 35 38 43 48 51 54 57 56 53
51 52 55 58 60 63 63 61 64 70 72 68 67 75 82 82 87 92 91 87 82 80 76 72 78 83 77 74 77 76 75 75 75 78 80 78 73 69 67 64 62 59 57 55 53 52 50 50 49 46 46 46 47 46 46 46 46 46 46 46 45 46 46 47 47 48 48 44 40 38 38 39 38 35 31 30 29 29 32 33 35 39 45 49 52 55 56 55
51 52 55 58 61 63 61 61 65 71 70 65 65 74 78 80 88 91 90 87 79 75 74 67 65 71 74 76 79 79 75 72 73 73 73 76 75 72 70 67 65 64 61 59 57 55 54 53 52 50 49 48 47 46 46 45 45 46 46 46 45 45 45 45 45 46 45 42 41 40 40 39 36 34 32 31 30 29 31 33 35 36 39 45 49 52 54 55
52 53 55 58 62 64 62 64 70 71 70 65 64 71 75 78 88 92 91 89 79 71 68 65 61 60 68 77 79 81 78 72 72 74 71 71 72 72 71 68 66 64 60 58 57 56 56 55 53 52 50 48 47 45 43 42 41 41 41 42 42 41 42 41 42 42 40 41 41 41 41 38 34 34 34 32 31 30 29 33 36 37 37 40 44 49 51 53
55 56 57 58 62 66 65 67 73 73 71 67 66 72 76 78 86 92 95 91 82 76 68 63 61 56 62 78 81 80 81 75 72 74 74 71 70 70 70 68 66 65 63 60 57 54 53 53 52 52 51 50 48 45 43 43 43 42 41 41 40 39 40 40 40 39 39 40 40 40 40 37 33 34 34 32 33 32 30 31 35 37 38 38 40 44 48 51
59 59 59 61 64 67 68 70 73 74 73 69 70 77 78 78 84 91 96 93 84 82 73 60 59 59 61 76 85 81 80 78 74 75 75 71 68 65 66 67 65 63 63 62 59 56 53 51 49 51 52 52 51 49 47 47 46 46 45 43 41 41 42 41 40 39 40 41 39 38 38 35 34 34 33 33 34 34 32 31 33 35 35 37 39 41 45 48
62 61 63 64 65 68 70 71 72 75 76 72 74 79 77 77 84 88 93 95 87 84 79 63 57 61 63 73 85 84 78 76 76 75 74 72 69 64 63 64 63 60 58 57 57 55 52 50 49 50 51 50 50 50 50 49 47 46 44 42 41 43 44 42 42 41 42 42 39 37 37 36 35 33 32 34 35 35 33 30 31 33 34 36 38 39 42 45
63 64 68 67 65 68 71 72 75 78 78 76 76 78 76 76 83 86 90 96 91 83 81 71 59 59 63 69 78 82 78 75 76 75 72 71 69 65 61 61 60 60 56 54 54 53 50 50 49 49 50 50 49 49 48 47 45 43 42 41 42 44 43 42 43 42 41 41 38 37 37 36 34 32 32 35 36 35 33 30 29 32 34 36 37 38 40 42
65 69 70 66 65 69 73 75 78 80 81 81 80 80 78 76 79 85 88 92 93 87 82 77 65 58 61 64 68 76 78 75 74 74 70 68 67 63 60 58 58 59 57 54 52 51 50 51 51 50 51 52 52 51 49 47 44 43 42 43 43 43 42 42 42 41 40 40 38 38 37 35 32 32 33 36 36 34 34 33 32 31 33 35 36 37 38 39
67 71 65 62 65 70 74 78 81 84 86 86 83 81 80 77 76 82 86 86 88 88 85 81 72 62 60 63 65 70 75 75 72 71 68 65 63 61 59 57 57 58 59 57 54 52 52 52 52 52 52 52 52 51 49 47 46 45 44 44 44 44 43 43 43 41 41 40 39 39 37 33 31 33 35 36 36 36 36 36 35 33 33 35 36 37 37 38
66 69 59 61 67 72 75 82 87 88 89 87 84 81 80 79 75 78 85 84 81 82 84 83 75 65 61 63 65 69 74 76 73 70 68 66 64 60 56 55 55 56 59 59 57 55 54 53 53 54 53 52 52 49 48 47 46 45 44 43 42 43 43 43 43 41 41 41 40 40 37 32 33 34 34 35 36 36 38 38 36 35 34 34 35 37 37 37
65 65 57 61 69 74 78 85 88 88 88 87 85 83 82 80 75 76 85 88 81 77 83 83 72 65 63 60 61 67 72 76 76 73 69 67 64 60 56 55 55 56 58 59 58 57 56 55 54 54 52 51 51 49 48 47 46 45 45 43 42 43 42 42 42 40 41 42 40 40 38 33 34 36 35 35 36 36 37 37 36 35 34 33 33 35 37 37
61 60 58 63 70 76 79 84 86 87 88 87 83 82 83 81 77 76 82 89 85 76 81 84 71 63 64 57 56 66 74 75 77 75 70 68 66 62 59 57 55 58 60 59 58 58 58 57 56 54 53 51 50 48 47 46 46 45 44 44 44 44 43 44 43 42 43 42 40 42 40 33 33 38 39 37 35 34 35 34 34 34 33 32 32 33 35 36
57 58 63 69 73 77 82 86 88 87 86 86 83 81 82 81 80 80 79 84 86 79 80 85 74 61 62 58 54 61 72 75 77 76 72 70 69 65 62 59 57 58 58 56 57 58 59 60 59 56 55 53 51 50 49 48 47 47 46 46 46 45 45 46 46 46 46 43 43 45 39 32 34 39 42 38 33 31 32 32 32 33 33 34 34 34 35 36
55 58 63 69 74 79 83 83 83 85 86 86 86 83 81 79 81 85 83 79 80 78 80 83 75 63 60 59 55 57 67 73 76 77 75 72 71 68 65 62 60 58 56 56 58 58 58 59 59 58 58 56 53 52 51 51 51 50 48 48 48 47 47 48 48 50 47 44 46 45 37 33 37 40 41 37 31 29 30 31 33 34 36 37 37 37 37 38
57 58 61 67 71 76 81 80 78 81 86 89 89 87 85 81 79 83 85 79 74 75 80 81 76 67 63 62 60 61 65 69 73 76 75 73 71 68 65 64 62 59 58 58 58 56 56 56 55 55 54 52 50 49 48 49 51 51 50 50 50 51 51 50 51 51 45 44 48 44 37 36 39 39 39 37 32 30 30 32 34 36 37 39 39 40 40 39
58 61 65 69 70 72 78 83 82 80 83 89 92 90 87 84 81 83 85 81 75 76 81 82 77 70 66 65 64 62 63 66 71 74 74 72 71 68 65 64 63 61 58 57 56 55 56 55 53 52 50 48 48 47 45 46 47 47 48 47 47 47 46 45 47 46 42 43 45 40 36 39 40 40 41 39 35 33 34 36 37 38 39 40 41 41 40 39
62 65 67 68 70 72 76 82 83 80 81 87 90 89 87 86 85 87 87 83 78 77 81 83 78 69 63 63 64 63 61 62 67 70 71 71 70 69 66 64 63 62 58 56 55 54 54 54 52 51 50 49 49 48 47 47 47 46 45 43 42 41 40 41 43 44 44 46 43 37 37 40 40 41 43 41 38 36 38 39 38 38 41 42 42 41 39 38
67 68 69 70 70 72 75 78 78 78 81 86 90 89 88 88 89 90 91 89 84 81 81 80 77 70 60 56 61 63 58 57 61 63 64 65 66 66 66 63 61 61 61 58 56 54 54 53 51 50 50 49 49 49 49 49 48 47 46 43 41 40 41 43 44 44 46 47 44 42 42 42 41 43 44 44 43 39 38 39 38 38 39 39 40 40 39 40
65 66 70 71 69 71 77 78 76 77 82 88 92 90 88 90 91 90 93 93 89 87 85 77 72 69 59 50 54 56 51 49 50 50 52 56 58 60 61 60 57 57 60 60 58 56 54 53 53 52 51 50 50 49 50 50 49 47 46 44 42 41 42 43 42 44 45 44 43 46 45 43 44 44 44 46 46 43 40 39 37 35 34 35 39 40 41 42
62 63 64 64 67 72 79 78 75 78 85 91 93 91 89 90 92 91 93 93 86 83 85 77 69 67 60 50 49 50 47 47 47 47 50 52 53 55 57 58 59 59 59 59 60 59 57 55 54 54 53 53 52 51 52 52 50 49 48 47 46 46 44 43 42 43 42 39 41 44 42 40 43 45 45 47 48 45 41 36 32 31 34 39 42 43 42 41
59 63 64 62 65 73 79 76 72 77 88 93 92 91 89 89 89 89 92 93 84 75 77 76 70 68 65 58 50 47 48 51 52 52 55 54 53 54 55 57 60 62 61 60 60 61 60 58 56 55 55 55 54 53 53 52 51 51 50 48 48 48 47 46 44 43 40 39 41 41 38 38 41 42 44 47 46 44 40 34 32 35 39 42 43 42 41 40
Wind_Direction
211 210 209 207 210 211 210 210 210 210 210 208 209 211 213 215 214 215 215 214 214 213 214 214 214 214 214 213 211 215 216 216 221 224 223 218 220 222 220 220 220 220 220 220 219 218 216 215 216 219 220 220 220 222 226 227 224 223 226 229 229 231 234 236 236 232 232 230 229 233 232 228 227 225 220 214 211 211 207 202 204 204 197 191 186 176 171 182
212 210 209 207 208 210 211 210 210 209 210 209 208 210 212 214 214 215 216 216 214 214 213 214 214 214 215 212 211 215 217 218 221 222 219 216 216 216 218 219 220 219 219 220 219 219 219 217 216 220 223 221 221 222 225 228 225 223 226 230 229 230 233 232 232 230 230 228 227 233 234 231 229 228 224 218 213 210 207 201 199 202 199 193 189 182 174 178
213 210 209 208 207 208 211 210 209 209 209 209 208 209 211 212 215 216 217 217 216 215 214 214 214 214 215 211 209 213 214 216 220 219 216 216 214 214 217 219 218 218 219 220 219 220 221 221 219 221 225 223 221 222 225 227 227 225 225 227 228 231 234 233 232 230 227 225 224 228 232 231 230 229 226 221 215 211 208 203 197 195 194 194 190 186 180 178
215 211 208 208 208 207 210 211 209 209 209 209 208 208 208 208 213 217 218 219 218 217 215 215 214 214 215 211 209 210 210 212 215 214 215 217 215 215 219 219 218 217 219 220 220 221 222 224 224 223 226 225 223 224 226 227 228 228 224 225 229 232 236 237 236 234 230 225 223 225 228 229 228 226 225 221 215 212 210 206 201 195 192 195 193 187 185 182
216 213 207 205 209 207 209 212 210 209 208 208 208 207 207 204 207 215 217 218 218 218 216 215 215 214 215 212 210 210 209 211 210 208 214 218 217 218 220 222 221 218 219 221 221 222 223 225 226 226 227 226 226 225 225 226 228 230 227 224 227 232 236 240 240 239 236 229 224 225 227 228 226 222 222 219 214 212 209 206 205 199 194 196 197 193 191 190
216 214 208 203 207 205 205 211 211 209 208 207 207 206 207 204 203 210 215 216 218 218 217 216 215 215 215 214 211 212 211 211 209 209 215 218 219 220 223 225 224 222 221 223 224 224 224 226 227 229 229 228 228 226 223 222 225 229 229 227 227 231 235 239 241 239 238 233 227 225 228 230 227 223 222 218 218 216 210 206 204 202 198 195 196 197 198 197
215 215 210 204 206 205 202 209 212 210 208 207 207 205 206 206 203 206 212 215 217 217 217 216 216 215 216 215 213 213 212 211 211 214 217 218 219 222 224 226 226 225 224 227 228 226 226 226 228 230 230 229 229 228 224 221 222 224 228 228 227 229 234 238 240 238 236 235 229 226 229 231 227 225 222 219 222 220 211 205 201 199 198 193 192 196 198 201
214 215 213 208 208 207 202 206 211 211 209 207 207 203 204 208 205 204 210 214 216 216 216 216 217 216 217 217 215 215 213 212 214 216 220 221 220 223 224 226 227 227 227 229 230 228 227 226 227 230 232 231 230 229 226 222 221 222 225 227 227 229 233 238 240 240 237 235 231 226 228 230 228 226 223 222 224 222 213 206 199 196 195 193 195 197 199 202
215 214 214 211 209 208 204 205 209 211 210 208 207 204 203 208 207 205 208 213 215 216 216 217 218 218 218 219 219 218 214 215 217 218 221 223 223 225 225 227 228 229 230 230 229 228 228 227 227 229 232 232 231 229 226 223 223 224 224 226 229 230 231 236 239 240 239 238 233 225 224 228 229 227 226 227 226 222 217 210 202 198 195 194 197 199 202 205
216 214 213 212 208 207 206 205 207 211 211 209 207 205 204 207 208 207 208 211 212 214 217 218 220 221 221 220 221 220 216 218 220 221 223 224 225 227 227 228 228 229 230 228 227 228 229 229 228 229 232 233 233 231 228 226 225 225 227 227 229 230 229 232 236 238 239 239 236 227 222 224 228 226 226 231 227 222 219 212 205 201 199 197 198 200 203 206
216 214 213 212 208 205 205 204 203 206 211 210 208 207 204 205 208 209 210 211 210 212 216 219 223 225 225 223 223 221 219 221 221 221 224 224 226 227 228 229 229 229 228 227 227 229 229 229 228 229 232 234 234 233 229 227 227 226 227 228 229 230 229 229 233 237 238 239 239 232 223 221 226 224 225 231 228 222 219 214 208 204 203 201 200 202 204 207
215 214 213 211 208 206 204 201 197 197 206 210 208 208 205 205 208 207 210 212 209 211 215 218 223 226 228 227 225 224 223 224 223 223 224 224 226 227 227 228 228 229 228 227 228 228 229 229 229 230 231 233 234 234 231 228 228 227 226 228 229 229 229 229 231 235 237 238 238 235 226 221 224 221 222 230 228 224 221 217 213 208 207 205 204 205 206 209
215 214 213 211 208 207 203 200 197 193 200 207 208 208 206 205 207 207 209 212 208 208 213 217 220 223 227 229 226 224 224 225 225 224 225 225 226 226 226 226 227 228 228 227 227 227 227 227 229 229 230 232 233 234 233 228 227 228 228 229 230 229 230 230 231 234 236 237 236 236 230 223 223 221 223 229 229 226 222 219 218 214 211 209 207 207 210 212
214 213 213 211 209 208 205 204 203 197 195 203 206 207 206 204 206 207 209 211 207 205 212 217 218 220 225 228 226 224 224 225 225 225 225 225 226 226 226 226 227 228 229 228 228 227 227 226 227 228 229 231 233 234 233 229 226 226 228 230 232 232 233 234 235 235 234 235 233 234 233 226 223 223 224 227 227 227 223 220 220 219 216 213 211 212 214 215
212 212 212 211 210 209 208 208 209 203 196 200 204 206 206 203 204 206 208 211 207 204 212 218 217 218 222 225 225 224 223 224 225 225 225 225 226 227 226 227 228 228 229 230 229 229 228 228 228 228 230 232 234 235 235 234 229 227 228 231 234 235 236 238 239 239 237 237 234 234 235 231 226 224 225 227 226 226 224 221 221 221 220 217 214 215 218 218
212 211 210 211 210 210 209 209 212 209 199 196 201 205 206 203 202 202 206 209 206 206 214 219 216 215 219 222 222 223 223 223 224 224 224 225 226 226 226 227 228 228 229 229 229 230 230 229 230 230 232 233 235 238 238 238 235 232 230 230 233 236 238 239 241 242 242 241 239 237 237 236 231 225 224 228 227 226 226 224 222 222 222 221 218 218 220 221
212 210 209 209 210 210 209 209 211 212 205 196 197 204 205 203 201 200 202 204 205 209 216 219 215 213 217 218 218 221 223 222 223 223 223 224 225 226 226 226 227 227 228 228 228 229 230 230 231 231 232 234 236 238 239 239 237 236 234 231 232 237 241 242 244 245 245 246 245 243 241 240 237 226 223 226 227 226 227 226 225 223 222 223 222 223 224 225
212 211 209 208 208 209 209 209 211 213 209 200 195 201 204 203 201 201 201 201 202 208 217 218 212 208 212 214 214 218 221 222 221 222 222 222 224 225 226 226 227 228 228 228 228 229 230 230 231 231 232 233 235 237 239 241 241 240 239 237 234 237 240 243 246 248 248 248 248 247 246 244 241 231 224 223 225 226 226 227 227 225 224 224 224 226 228 228
211 210 209 208 207 208 209 208 210 213 212 204 197 199 202 202 201 202 205 206 204 207 216 219 213 208 210 212 213 215 217 219 219 220 221 221 223 224 225 226 227 228 228 228 228 228 230 230 231 231 231 233 235 237 240 242 243 242 241 240 237 236 238 240 242 245 246 246 246 248 248 247 244 237 228 224 225 227 227 228 229 228 227 227 226 227 230 231
210 209 208 207 206 207 208 208 209 213 214 209 203 199 200 201 200 201 206 211 209 207 215 220 216 212 211 209 212 214 213 213 215 217 219 220 222 224 226 226 227 228 228 229 229 229 229 230 231 231 233 236 238 239 240 241 241 241 240 240 238 238 239 239 240 242 244 245 246 248 249 249 247 239 229 224 224 227 228 229 230 230 230 230 230 230 231 231
209 208 207 206 205 206 208 208 209 213 215 212 208 203 199 201 201 200 204 210 209 206 211 216 214 214 213 208 210 215 214 212 211 212 217 219 221 223 226 227 228 228 228 229 229 230 229 229 230 232 235 237 237 237 237 237 238 239 239 239 238 238 239 240 241 244 245 246 247 248 249 250 251 241 230 226 225 227 229 229 230 231 232 233 233 233 233 233
208 208 207 206 205 205 207 207 209 214 216 214 211 206 199 200 202 200 201 205 206 204 206 210 213 214 213 209 208 213 216 214 211 208 212 217 219 222 225 227 228 228 229 230 230 230 229 228 229 232 235 235 236 235 236 236 236 237 237 237 237 236 237 239 242 245 247 248 248 249 249 249 250 245 238 233 228 227 230 231 231 232 232 234 235 236 236 236
208 207 207 206 205 204 206 207 209 214 217 215 213 207 198 199 202 201 201 203 205 205 205 209 215 215 212 210 208 210 215 216 214 211 213 217 219 221 224 226 227 228 228 230 230 231 231 232 233 234 236 237 237 237 238 238 238 238 239 239 238 237 237 239 243 247 249 250 250 252 252 249 249 247 246 243 235 229 231 233 234 234 234 235 237 238 240 240
209 207 206 206 205 204 205 207 208 213 216 215 212 207 200 200 201 201 203 206 206 207 209 211 216 217 214 212 210 211 215 215 215 214 217 221 221 222 224 225 226 227 229 230 231 232 233 234 237 237 237 238 239 239 239 240 240 240 241 242 241 239 237 238 242 246 249 251 251 252 254 253 251 249 248 250 245 236 233 234 235 236 236 237 238 240 242 243
209 208 207 205 206 205 205 208 208 212 216 215 212 208 203 201 201 201 205 209 209 208 211 211 212 217 217 216 214 214 215 215 213 212 215 219 221 222 223 224 225 226 228 230 231 232 233 233 234 234 235 236 237 239 240 240 241 241 242 243 243 240 238 237 240 243 246 249 250 251 254 254 253 252 247 249 252 247 240 237 236 238 239 238 238 240 242 243
209 208 208 206 206 206 207 208 207 211 215 213 212 211 206 201 202 203 207 213 214 210 212 213 211 213 217 219 218 215 215 217 213 208 208 210 214 218 220 222 224 225 226 228 230 231 231 232 233 233 233 234 234 236 238 239 240 240 240 241 241 240 238 238 240 243 245 248 249 250 253 253 252 254 250 247 251 253 248 242 239 239 240 240 240 240 241 242
209 209 209 208 207 207 207 207 207 211 214 212 212 213 208 203 201 203 208 216 218 214 213 217 215 211 213 217 218 216 216 216 214 211 209 209 211 213 217 220 222 225 226 227 229 230 231 232 233 233 234 234 234 235 237 238 239 240 241 240 241 241 239 238 239 243 246 247 248 250 253 254 252 253 254 250 250 254 253 249 243 240 240 241 241 241 242 243
209 209 209 209 208 208 206 206 207 210 212 212 212 214 211 207 204 204 210 217 218 216 214 216 217 213 212 215 217 217 218 218 217 218 217 216 219 219 219 220 220 223 227 230 232 232 233 234 234 235 235 236 237 237 237 237 238 239 239 239 240 241 240 239 239 242 245 247 248 249 253 256 255 251 253 254 252 256 259 255 249 244 242 242 242 242 242 243
210 210 209 209 210 208 205 207 206 207 211 212 210 211 211 210 209 209 213 216 216 216 216 216 217 215 213 212 214 216 218 219 220 222 222 221 222 224 224 223 221 220 223 227 231 232 232 233 232 232 233 234 234 235 236 236 237 236 235 237 237 238 239 239 240 241 243 246 248 249 251 256 257 252 252 255 255 257 261 260 254 249 245 243 243 243 243 243
210 212 211 211 210 207 206 206 204 205 212 213 208 209 210 210 210 210 215 216 213 213 215 216 217 218 215 210 211 214 215 217 219 222 224 223 223 226 225 221 219 219 219 218 220 224 226 227 228 229 229 229 228 229 231 232 233 233 233 234 234 234 234 235 237 237 240 245 246 246 248 254 256 253 252 255 254 252 256 259 256 250 246 244 243 243 244 244
209 212 214 213 209 207 207 204 200 205 213 213 208 207 209 210 209 209 214 214 210 209 211 213 215 219 219 212 209 211 212 214 216 220 223 222 222 225 222 217 214 214 214 215 217 220 222 224 226 228 228 228 228 228 229 229 231 233 233 233 232 231 231 231 234 236 239 243 243 242 245 249 255 257 254 254 253 249 251 256 256 251 246 244 243 242 243 244
208 210 214 214 211 209 207 199 199 207 214 213 207 207 209 210 207 208 212 212 210 208 208 209 211 214 218 216 212 212 211 212 213 216 221 222 222 225 226 225 223 223 222 221 221 221 222 224 225 226 226 227 228 229 229 230 231 232 233 233 232 231 232 233 236 238 242 245 244 244 246 249 256 260 257 255 253 249 251 256 259 256 250 247 245 244 243 244
212 213 214 214 213 211 204 198 201 208 213 213 207 208 212 211 208 207 209 210 210 208 207 208 208 209 213 214 214 213 211 211 211 211 216 220 222 224 227 227 227 231 233 231 227 223 222 223 224 225 226 227 229 231 232 234 235 236 236 237 237 237 239 242 244 246 247 248 247 247 249 251 257 260 259 259 257 253 254 257 259 258 255 252 249 248 246 245
216 218 217 214 213 210 202 200 204 207 212 213 206 209 214 213 210 207 207 210 209 206 207 207 207 208 210 212 214 214 211 210 211 210 210 213 216 218 221 223 224 228 231 230 228 229 230 232 232 232 232 232 233 234 234 235 235 238 240 241 243 246 249 250 251 252 253 252 249 249 250 252 256 260 262 263 262 259 256 256 257 256 255 253 251 250 249 248
219 221 220 217 213 209 204 205 206 206 211 213 207 210 214 213 211 208 208 211 208 205 207 207 208 210 211 212 213 214 212 209 208 210 209 210 213 217 220 222 225 227 228 226 225 228 232 236 239 239 238 237 236 236 236 235 235 235 237 240 244 248 250 250 251 252 252 251 250 249 251 253 255 258 260 261 261 260 256 253 255 255 255 254 251 249 249 248
222 223 223 219 213 208 207 208 209 207 211 213 209 212 215 213 212 210 210 211 209 207 207 208 212 214 213 213 212 212 211 208 207 209 210 211 213 217 220 222 223 226 228 228 227 226 228 231 233 235 235 236 235 235 234 235 236 236 238 242 245 245 244 246 248 249 249 250 250 251 251 252 252 253 256 258 258 258 256 252 252 253 255 255 254 252 249 248
223 224 224 219 212 209 209 211 211 209 211 214 212 213 214 212 212 211 211 211 210 208 207 209 214 215 214 213 212 211 210 207 206 208 209 210 212 215 217 219 221 223 226 229 229 227 228 230 231 231 231 232 233 234 233 233 234 236 240 243 243 241 241 244 245 245 246 248 249 249 249 250 250 252 255 256 256 257 257 255 252 254 255 255 255 254 252 251
225 226 223 216 209 210 210 211 212 211 212 214 213 213 213 212 212 212 211 212 211 209 207 208 213 217 217 215 213 212 210 207 206 207 208 209 210 214 217 218 221 222 221 223 225 225 225 227 229 229 229 229 230 232 233 234 236 238 240 241 241 241 243 245 247 247 248 249 249 248 248 248 250 252 254 255 256 258 260 258 253 252 253 254 255 255 254 253
227 228 221 209 204 208 209 211 213 212 213 213 212 211 212 212 212 212 212 212 212 211 207 207 212 219 220 218 216 212 211 209 207 207 210 211 211 214 217 219 220 220 218 218 220 222 222 223 224 225 226 227 227 229 232 234 236 236 236 237 239 242 244 245 247 249 250 251 250 249 248 248 250 251 251 253 256 258 259 257 254 251 251 253 255 256 256 254
229 229 217 198 199 205 207 210 213 212 212 212 212 210 210 210 209 210 211 211 213 212 209 208 213 219 220 218 217 215 212 211 208 208 210 212 213 214 216 218 218 218 217 216 216 218 220 221 222 223 224 226 228 230 233 234 234 235 236 238 239 240 241 242 243 245 246 247 247 247 247 245 246 247 248 252 256 257 258 257 255 253 251 252 254 255 256 255
230 230 208 188 195 201 203 209 212 212 211 211 211 210 210 209 208 209 208 208 212 213 210 209 213 218 220 219 218 217 214 211 207 206 209 211 212 214 215 216 217 217 217 216 215 215 217 219 222 223 223 226 229 230 231 232 233 233 235 238 241 242 243 244 245 246 246 246 246 247 246 243 243 245 246 250 254 255 256 256 255 254 252 250 250 252 254 256
229 225 200 186 196 200 203 210 212 211 210 210 209 209 209 208 206 207 207 206 210 211 209 208 210 214 218 221 221 218 215 212 207 205 208 210 211 213 215 216 215 215 217 218 218 217 217 217 220 222 222 224 226 227 228 229 231 231 232 234 236 239 241 243 245 246 247 247 247 248 246 240 239 243 243 245 249 251 253 255 255 255 254 251 248 250 253 256
223 215 197 192 200 202 205 210 212 211 209 209 209 207 207 207 204 205 206 207 209 209 207 207 209 213 215 218 221 218 214 212 208 206 207 209 211 213 215 216 215 214 214 217 218 218 218 217 218 220 221 221 223 224 225 227 228 230 231 232 234 237 239 239 240 241 242 243 243 244 243 236 235 240 240 241 245 248 251 254 257 257 257 255 252 251 252 255
217 211 203 201 202 204 207 210 211 210 207 206 206 206 206 206 205 203 204 207 210 210 207 206 208 212 214 216 220 216 212 210 208 207 208 209 211 212 213 215 215 216 216 217 218 218 218 218 217 217 218 219 219 221 224 227 230 232 231 232 233 234 236 237 237 237 238 238 238 239 241 238 234 236 238 240 245 251 253 253 255 257 258 258 257 254 253 254
218 215 210 206 205 205 209 212 212 209 206 204 203 203 203 203 203 204 203 205 209 210 208 207 209 214 216 217 218 214 212 210 209 208 209 210 211 212 213 213 214 215 217 218 219 218 218 219 220 220 221 223 225 229 232 234 234 234 232 232 232 233 234 236 237 237 237 238 239 239 242 241 237 239 243 245 246 249 253 253 252 253 255 257 258 256 255 254
217 215 207 204 205 206 210 214 214 209 205 203 201 201 201 199 198 201 202 204 206 207 206 206 210 214 215 217 217 213 211 210 209 210 211 211 212 213 214 214 214 214 215 218 220 220 220 221 223 224 227 230 233 236 238 238 237 235 233 232 232 231 232 233 235 236 238 240 240 240 242 242 242 245 249 250 247 246 250 253 253 253 253 254 255 256 257 257
213 214 207 201 203 206 208 210 212 210 206 203 201 200 199 197 196 197 200 203 206 206 206 206 209 212 213 216 216 211 209 209 209 210 212 212 213 214 214 215 216 216 215 217 220 221 223 223 224 226 228 229 231 232 234 236 237 237 236 236 237 238 238 239 238 237 240 243 242 241 243 244 244 247 249 252 251 249 249 250 250 252 254 254 254 255 257 259
205 209 209 206 204 205 206 207 208 207 206 204 201 200 198 196 197 197 197 202 206 207 206 207 208 211 214 218 216 210 209 211 210 211 213 214 214 215 216 216 218 218 218 218 220 222 225 226 227 227 227 227 228 229 230 231 233 234 235 237 241 243 245 246 244 240 241 243 242 241 242 242 243 245 248 251 252 250 249 248 247 247 249 252 254 256 259 261
200 203 207 209 208 207 208 209 206 203 204 203 200 199 199 197 198 198 198 200 204 206 207 207 207 209 212 215 212 210 210 210 208 210 213 215 217 217 218 218 219 220 220 221 222 224 225 226 226 227 228 228 228 229 230 231 231 233 233 235 237 239 241 242 241 241 241 242 241 240 239 238 239 241 243 247 250 249 247 246 245 243 244 249 253 257 259 262
203 206 206 205 206 207 208 209 206 201 201 201 198 197 199 199 199 199 199 201 203 204 205 205 205 208 210 209 207 208 210 208 207 209 209 211 215 217 219 220 222 223 223 223 224 225 226 226 225 225 227 228 229 231 232 232 233 234 234 235 235 237 239 240 240 240 241 240 240 239 237 235 236 239 240 244 247 248 246 245 245 245 247 251 255 256 257 258
203 207 208 204 204 205 205 205 205 201 199 198 196 195 197 200 202 201 200 202 205 206 205 203 203 206 210 211 210 209 209 213 217 218 214 211 213 216 218 220 222 224 225 225 225 225 225 226 225 224 226 227 227 230 231 233 234 234 234 234 235 237 238 239 240 240 241 241 240 239 238 236 235 236 239 241 244 247 250 250 248 247 249 253 255 257 257 258
201 205 208 205 201 201 201 202 203 202 198 195 194 194 195 198 201 202 202 203 205 206 206 205 205 207 211 213 213 212 214 217 220 221 219 219 220 221 223 224 224 225 227 228 228 226 225 227 227 227 227 228 228 229 231 233 233 233 233 234 236 238 239 239 239 240 241 240 239 239 239 239 238 237 239 243 246 250 252 252 249 249 251 254 256 258 260 261
Height
5622 5631 5640 5648 5654 5660 5667 5674 5681 5688 5695 5703 5710 5716 5722 5728 5734 5738 5742 5748 5752 5756 5760 5765 5769 5773 5777 5781 5784 5787 5790 5793 5795 5798 5803 5808 5809 5809 5812 5815 5818 5821 5823 5825 5827 5829 5830 5831 5833 5836 5837 5839 5841 5843 5845 5847 5850 5852 5853 5855 5858 5860 5862 5863 5864 5866 5867 5869 5871 5872 5873 5875 5876 5876 5877 5878 5880 5881 5882 5884 5885 5886 5886 5886 5887 5889 5891 5892
5615 5624 5633 5640 5647 5655 5661 5667 5674 5681 5688 5696 5703 5709 5716 5724 5730 5734 5738 5742 5746 5751 5756 5760 5764 5769 5772 5776 5780 5783 5786 5789 5791 5795 5801 5802 5802 5805 5808 5812 5815 5819 5821 5823 5825 5827 5828 5830 5832 5834 5835 5837 5840 5842 5843 5845 5848 5850 5852 5855 5857 5858 5859 5860 5861 5863 5865 5868 5870 5871 5872 5874 5875 5876 5877 5878 5879 5880 5881 5883 5884 5885 5885 5886 5886 5888 5890 5891
5609 5617 5626 5633 5641 5649 5654 5659 5667 5675 5682 5690 5697 5704 5712 5720 5726 5730 5735 5738 5742 5747 5751 5756 5760 5764 5768 5771 5776 5778 5781 5784 5786 5792 5797 5797 5800 5803 5805 5809 5813 5816 5819 5821 5823 5825 5827 5828 5830 5832 5833 5835 5838 5839 5841 5843 5846 5848 5850 5854 5856 5857 5857 5858 5859 5861 5863 5866 5868 5869 5871 5873 5875 5876 5876 5876 5878 5880 5881 5881 5881 5882 5884 5884 5885 5887 5889 5891
5602 5611 5620 5627 5634 5642 5648 5653 5661 5668 5676 5684 5692 5699 5707 5716 5722 5727 5732 5735 5738 5742 5747 5751 5755 5760 5763 5767 5769 5773 5776 5777 5783 5791 5793 5794 5797 5800 5803 5806 5810 5813 5816 5819 5821 5823 5825 5827 5828 5830 5831 5833 5835 5837 5839 5841 5843 5845 5849 5852 5854 5855 5856 5857 5858 5860 5862 5864 5866 5868 5869 5871 5873 5875 5875 5876 5878 5879 5879 5879 5879 5881 5883 5883 5884 5885 5888 5890
5596 5604 5614 5622 5627 5635 5643 5647 5655 5662 5670 5679 5687 5695 5701 5708 5716 5722 5727 5731 5734 5738 5742 5746 5750 5755 5758 5761 5764 5767 5769 5773 5783 5787 5786 5790 5794 5797 5800 5803 5806 5810 5813 5816 5819 5821 5823 5825 5826 5828 5829 5831 5833 5835 5837 5839 5841 5843 5847 5850 5852 5854 5854 5856 5858 5860 5862 5864 5865 5867 5868 5869 5871 5874 5874 5875 5876 5875 5875 5877 5879 5881 5882 5883 5884 5885 5887 5888
5590 5598 5608 5616 5620 5628 5637 5642 5649 5657 5664 5673 5681 5689 5695 5701 5709 5716 5721 5725 5729 5733 5737 5741 5745 5749 5753 5755 5759 5761 5764 5773 5781 5782 5782 5787 5790 5793 5797 5799 5803 5806 5810 5813 5815 5818 5820 5822 5824 5826 5828 5829 5831 5833 5834 5836 5838 5841 5844 5848 5850 5852 5853 5854 5856 5858 5860 5863 5864 5866 5866 5867 5871 5873 5873 5874 5873 5872 5875 5878 5880 5881 5882 5883 5884 5886 5887 5888
5583 5591 5600 5609 5614 5622 5632 5638 5643 5651 5659 5667 5674 5683 5691 5696 5701 5708 5714 5718 5723 5728 5732 5736 5740 5743 5746 5748 5752 5756 5761 5770 5776 5777 5779 5783 5787 5790 5794 5796 5799 5803 5807 5810 5812 5816 5818 5820 5822 5824 5826 5828 5829 5831 5832 5834 5836 5838 5841 5844 5847 5849 5850 5852 5855 5856 5858 5860 5863 5865 5865 5866 5870 5871 5872 5873 5871 5872 5876 5878 5879 5880 5882 5883 5883 5884 5886 5887
5576 5584 5593 5602 5609 5617 5626 5632 5638 5645 5653 5661 5668 5679 5687 5690 5695 5702 5707 5712 5718 5723 5727 5732 5734 5738 5740 5743 5748 5751 5758 5766 5770 5773 5775 5779 5784 5787 5790 5793 5796 5800 5804 5807 5810 5813 5815 5817 5819 5821 5823 5825 5827 5829 5830 5831 5833 5836 5839 5842 5844 5846 5848 5850 5853 5855 5856 5858 5860 5863 5864 5865 5867 5869 5872 5871 5870 5873 5875 5877 5878 5879 5880 5881 5882 5882 5884 5886
5569 5577 5586 5596 5604 5612 5620 5627 5633 5639 5647 5656 5663 5673 5681 5684 5690 5696 5700 5706 5713 5718 5723 5727 5729 5733 5735 5739 5744 5747 5759 5766 5767 5770 5773 5776 5780 5783 5787 5790 5794 5797 5801 5804 5807 5809 5812 5815 5817 5819 5821 5823 5825 5826 5828 5830 5831 5834 5836 5839 5841 5844 5846 5848 5850 5853 5854 5855 5857 5860 5862 5864 5865 5868 5870 5869 5870 5873 5875 5876 5877 5878 5878 5879 5880 5882 5883 5885
5562 5571 5580 5589 5598 5606 5614 5621 5627 5634 5641 5650 5658 5667 5674 5680 5685 5691 5695 5701 5708 5713 5718 5722 5726 5728 5730 5735 5738 5744 5759 5762 5761 5767 5770 5773 5777 5780 5785 5787 5791 5794 5797 5801 5804 5807 5809 5812 5814 5816 5817 5819 5821 5824 5827 5829 5830 5832 5834 5837 5839 5841 5843 5845 5847 5850 5852 5854 5855 5857 5859 5862 5864 5866 5868 5868 5870 5873 5873 5875 5876 5876 5877 5877 5879 5881 5882 5884
5556 5565 5573 5582 5592 5600 5607 5615 5621 5629 5636 5644 5653 5661 5669 5676 5681 5687 5692 5695 5703 5709 5714 5719 5722 5722 5727 5732 5733 5744 5756 5754 5757 5763 5765 5770 5773 5777 5782 5784 5788 5791 5794 5797 5800 5803 5805 5807 5810 5812 5814 5816 5819 5822 5825 5827 5829 5831 5832 5834 5835 5837 5840 5842 5844 5847 5850 5852 5853 5855 5857 5859 5861 5865 5866 5866 5869 5871 5872 5873 5874 5875 5875 5876 5878 5879 5881 5883
5551 5559 5567 5576 5587 5594 5601 5609 5615 5623 5630 5639 5648 5655 5663 5671 5676 5683 5688 5692 5699 5706 5710 5715 5716 5718 5723 5724 5730 5744 5749 5748 5753 5757 5759 5766 5769 5772 5776 5779 5783 5786 5790 5793 5796 5799 5801 5804 5806 5809 5811 5813 5816 5818 5822 5825 5827 5828 5830 5831 5832 5834 5837 5839 5841 5844 5847 5849 5851 5853 5854 5856 5859 5864 5864 5864 5868 5869 5871 5872 5873 5874 5874 5875 5877 5879 5881 5881
5546 5554 5562 5571 5581 5590 5597 5603 5609 5617 5626 5633 5642 5650 5658 5666 5672 5679 5685 5689 5696 5702 5707 5710 5711 5714 5714 5717 5729 5739 5740 5742 5748 5750 5755 5761 5763 5767 5771 5774 5778 5781 5785 5788 5791 5794 5797 5800 5802 5805 5807 5809 5812 5814 5818 5823 5825 5826 5827 5828 5829 5831 5833 5835 5837 5839 5842 5845 5848 5850 5851 5854 5858 5862 5863 5863 5865 5867 5869 5870 5871 5872 5873 5875 5876 5878 5879 5880
5541 5548 5557 5565 5575 5584 5593 5597 5602 5611 5621 5628 5636 5645 5653 5662 5670 5676 5682 5687 5693 5699 5704 5706 5707 5708 5707 5713 5725 5728 5730 5736 5740 5745 5751 5755 5759 5763 5767 5771 5774 5777 5781 5784 5787 5790 5792 5795 5797 5800 5802 5804 5807 5811 5815 5819 5822 5823 5824 5825 5826 5828 5830 5833 5834 5836 5838 5841 5845 5847 5848 5852 5857 5860 5861 5861 5862 5864 5866 5868 5869 5870 5872 5873 5875 5877 5878 5879
5537 5543 5551 5560 5569 5578 5587 5592 5596 5605 5616 5624 5631 5639 5648 5659 5667 5675 5681 5684 5690 5697 5700 5699 5701 5702 5701 5708 5716 5718 5724 5729 5733 5741 5746 5751 5755 5759 5763 5767 5769 5773 5777 5780 5784 5787 5789 5792 5794 5797 5799 5802 5805 5808 5812 5816 5819 5821 5822 5823 5824 5826 5829 5831 5833 5834 5836 5838 5841 5844 5846 5850 5854 5857 5858 5858 5859 5862 5864 5866 5867 5868 5870 5872 5873 5875 5876 5877
5533 5538 5546 5554 5563 5572 5581 5587 5590 5598 5610 5618 5626 5634 5643 5654 5663 5671 5677 5681 5687 5692 5692 5691 5693 5696 5696 5702 5707 5710 5716 5722 5728 5735 5740 5746 5750 5754 5758 5761 5765 5769 5772 5776 5780 5782 5786 5788 5791 5795 5797 5801 5803 5806 5810 5813 5816 5818 5819 5821 5823 5825 5827 5829 5830 5832 5833 5835 5838 5840 5843 5847 5850 5853 5855 5855 5857 5860 5861 5863 5865 5866 5867 5869 5871 5872 5874 5875
5529 5534 5541 5549 5557 5566 5575 5582 5585 5592 5603 5612 5621 5629 5638 5648 5658 5664 5669 5675 5681 5685 5687 5688 5692 5693 5691 5695 5700 5703 5711 5718 5723 5729 5734 5740 5744 5748 5752 5756 5760 5763 5767 5771 5775 5778 5782 5785 5788 5792 5795 5798 5801 5804 5806 5808 5811 5813 5816 5820 5823 5824 5826 5828 5829 5830 5831 5833 5835 5837 5840 5843 5845 5848 5850 5852 5855 5857 5859 5860 5861 5863 5864 5866 5868 5870 5872 5873
5526 5531 5537 5544 5552 5560 5569 5577 5580 5585 5595 5604 5614 5623 5631 5640 5648 5653 5660 5667 5673 5677 5680 5682 5684 5682 5680 5687 5695 5701 5707 5713 5717 5722 5728 5732 5737 5742 5747 5751 5755 5758 5762 5766 5771 5775 5777 5781 5785 5788 5791 5795 5797 5800 5802 5805 5809 5812 5815 5819 5822 5823 5824 5826 5827 5828 5829 5831 5832 5834 5836 5838 5841 5843 5844 5848 5851 5854 5855 5856 5858 5859 5861 5863 5865 5868 5870 5871
5522 5527 5533 5539 5547 5555 5563 5571 5575 5578 5587 5596 5606 5615 5621 5629 5639 5646 5653 5658 5660 5662 5664 5668 5672 5674 5680 5690 5695 5698 5703 5707 5711 5715 5720 5726 5732 5737 5741 5746 5749 5753 5758 5762 5767 5771 5774 5778 5781 5784 5788 5791 5795 5798 5801 5805 5808 5811 5813 5816 5818 5819 5821 5822 5823 5824 5825 5827 5829 5830 5832 5834 5837 5839 5841 5845 5848 5850 5852 5853 5855 5857 5858 5860 5863 5865 5867 5869
5518 5524 5529 5535 5542 5550 5557 5566 5570 5571 5578 5587 5595 5604 5611 5619 5630 5638 5646 5651 5655 5659 5660 5666 5675 5680 5686 5690 5691 5694 5697 5700 5704 5709 5715 5721 5727 5732 5736 5740 5744 5748 5753 5758 5763 5767 5771 5774 5778 5783 5787 5790 5794 5797 5800 5803 5804 5807 5809 5811 5813 5816 5817 5819 5819 5819 5820 5822 5825 5827 5828 5830 5833 5835 5837 5840 5845 5847 5848 5850 5852 5854 5855 5857 5860 5862 5864 5866
5516 5520 5525 5531 5538 5545 5551 5559 5564 5564 5569 5578 5586 5595 5605 5614 5626 5637 5647 5652 5657 5660 5659 5664 5674 5678 5682 5685 5686 5689 5691 5694 5699 5705 5710 5715 5721 5726 5730 5734 5739 5744 5750 5754 5758 5762 5766 5771 5777 5780 5783 5786 5789 5792 5794 5797 5799 5802 5804 5807 5809 5811 5814 5815 5815 5815 5817 5819 5822 5824 5825 5827 5830 5832 5832 5835 5841 5843 5845 5847 5848 5850 5852 5854 5856 5858 5860 5862
5512 5516 5522 5527 5532 5539 5546 5552 5557 5556 5559 5570 5578 5589 5603 5617 5631 5642 5647 5648 5651 5652 5652 5658 5664 5669 5675 5679 5681 5684 5686 5689 5694 5698 5701 5706 5714 5719 5724 5730 5734 5741 5746 5750 5754 5758 5762 5769 5773 5776 5778 5781 5783 5786 5789 5792 5795 5798 5800 5802 5804 5807 5810 5811 5812 5812 5814 5816 5819 5820 5822 5824 5827 5830 5831 5832 5837 5840 5841 5843 5845 5846 5848 5850 5852 5854 5856 5858
5508 5513 5518 5522 5528 5534 5539 5545 5550 5548 5551 5565 5575 5589 5607 5619 5628 5634 5635 5636 5641 5644 5645 5650 5654 5659 5666 5671 5676 5680 5682 5685 5690 5692 5695 5701 5709 5714 5719 5724 5729 5736 5740 5745 5751 5756 5761 5768 5771 5772 5775 5778 5780 5784 5786 5789 5792 5794 5797 5799 5802 5805 5807 5809 5810 5810 5812 5814 5816 5818 5819 5822 5824 5827 5830 5830 5833 5836 5838 5840 5841 5843 5845 5847 5849 5851 5854 5855
5505 5510 5513 5519 5523 5528 5533 5537 5540 5542 5548 5562 5576 5592 5608 5614 5618 5624 5626 5627 5631 5635 5639 5644 5649 5653 5659 5668 5675 5678 5678 5683 5688 5690 5693 5699 5706 5711 5716 5721 5726 5732 5737 5744 5750 5754 5760 5765 5767 5769 5772 5775 5778 5781 5784 5786 5789 5791 5794 5797 5800 5802 5804 5806 5807 5808 5809 5811 5814 5816 5817 5820 5822 5825 5828 5828 5829 5833 5836 5837 5839 5840 5842 5844 5846 5849 5851 5853
5501 5505 5509 5515 5518 5522 5526 5527 5535 5544 5548 5560 5578 5591 5600 5606 5612 5618 5621 5619 5620 5627 5634 5639 5644 5647 5655 5664 5669 5672 5677 5680 5683 5686 5691 5696 5702 5707 5713 5718 5724 5730 5736 5742 5746 5750 5755 5758 5761 5765 5768 5771 5774 5778 5781 5784 5786 5789 5792 5794 5796 5798 5800 5802 5803 5805 5806 5808 5811 5813 5813 5817 5820 5822 5826 5826 5825 5829 5832 5834 5836 5837 5839 5840 5842 5845 5847 5849
5497 5501 5505 5510 5512 5516 5518 5523 5537 5543 5544 5560 5578 5585 5592 5603 5609 5613 5617 5614 5610 5618 5627 5632 5636 5641 5650 5655 5659 5668 5671 5672 5678 5682 5685 5691 5698 5704 5710 5715 5721 5728 5733 5737 5741 5745 5750 5753 5757 5761 5764 5767 5771 5775 5778 5780 5782 5785 5788 5790 5791 5794 5797 5799 5800 5802 5803 5806 5808 5810 5811 5814 5817 5819 5822 5823 5823 5824 5827 5831 5834 5834 5836 5837 5839 5841 5843 5845
5492 5497 5501 5504 5508 5510 5515 5527 5535 5535 5543 5563 5574 5579 5589 5600 5605 5610 5616 5609 5601 5611 5622 5626 5630 5637 5644 5649 5656 5661 5660 5665 5675 5677 5681 5688 5693 5698 5704 5711 5718 5725 5729 5732 5736 5742 5747 5750 5753 5757 5760 5764 5768 5773 5775 5777 5779 5783 5786 5786 5788 5791 5794 5795 5797 5799 5801 5803 5805 5807 5808 5809 5814 5818 5818 5819 5821 5821 5822 5826 5829 5831 5832 5834 5835 5838 5840 5841
5488 5492 5495 5499 5503 5507 5516 5524 5526 5532 5548 5561 5567 5575 5584 5593 5598 5603 5604 5594 5590 5605 5616 5618 5625 5634 5640 5646 5652 5654 5655 5666 5671 5671 5679 5684 5687 5693 5700 5708 5715 5721 5726 5729 5735 5741 5745 5747 5751 5755 5758 5763 5768 5771 5772 5774 5777 5780 5781 5782 5785 5788 5789 5792 5794 5795 5797 5799 5802 5806 5806 5805 5810 5816 5815 5815 5818 5819 5819 5821 5824 5826 5828 5830 5832 5834 5836 5837
5484 5487 5491 5495 5498 5505 5513 5515 5520 5537 5546 5549 5558 5566 5574 5583 5588 5590 5586 5578 5585 5602 5609 5613 5621 5627 5632 5639 5644 5646 5653 5661 5664 5668 5676 5678 5681 5688 5696 5704 5711 5715 5720 5726 5732 5737 5740 5744 5748 5752 5756 5762 5766 5766 5768 5771 5774 5776 5776 5778 5781 5783 5784 5787 5789 5792 5793 5794 5799 5803 5803 5802 5806 5812 5813 5812 5815 5817 5816 5816 5818 5820 5822 5825 5828 5829 5831 5832
5479 5482 5487 5489 5494 5502 5507 5510 5526 5539 5537 5540 5552 5558 5564 5569 5571 5573 5566 5564 5582 5597 5601 5607 5615 5619 5625 5631 5635 5639 5645 5650 5657 5665 5669 5673 5679 5684 5691 5699 5705 5709 5713 5719 5725 5730 5734 5738 5742 5747 5754 5758 5759 5759 5763 5767 5769 5770 5771 5773 5776 5777 5779 5781 5783 5786 5787 5790 5796 5799 5799 5799 5800 5806 5810 5809 5811 5813 5812 5812 5812 5814 5816 5819 5822 5824 5826 5828
5473 5478 5481 5484 5492 5499 5501 5512 5531 5534 5528 5536 5547 5550 5553 5554 5555 5556 5552 5561 5583 5591 5593 5601 5608 5614 5622 5627 5629 5634 5639 5643 5652 5658 5661 5668 5675 5678 5684 5691 5697 5702 5707 5713 5720 5726 5731 5734 5739 5745 5750 5751 5752 5755 5759 5762 5764 5765 5766 5768 5770 5772 5774 5775 5778 5780 5781 5787 5793 5794 5795 5795 5796 5802 5806 5807 5808 5809 5809 5808 5808 5809 5811 5813 5816 5818 5821 5823
5468 5472 5475 5481 5489 5492 5499 5517 5527 5522 5521 5531 5539 5539 5540 5539 5539 5540 5547 5566 5578 5579 5586 5596 5602 5610 5619 5625 5629 5632 5635 5640 5648 5655 5658 5664 5670 5675 5681 5686 5691 5697 5702 5711 5717 5722 5727 5731 5737 5742 5744 5746 5748 5752 5755 5758 5760 5760 5762 5764 5765 5767 5769 5771 5774 5776 5779 5786 5790 5791 5792 5792 5795 5799 5802 5804 5805 5806 5806 5806 5806 5806 5807 5809 5811 5812 5815 5818
5462 5466 5470 5477 5483 5488 5502 5516 5515 5510 5514 5523 5530 5532 5529 5525 5523 5533 5550 5562 5566 5574 5586 5595 5602 5610 5615 5620 5623 5627 5634 5639 5644 5650 5656 5662 5668 5674 5679 5683 5689 5695 5704 5712 5714 5717 5722 5726 5731 5736 5740 5743 5746 5749 5753 5756 5758 5758 5759 5761 5763 5765 5768 5771 5774 5776 5780 5784 5787 5789 5788 5790 5795 5796 5797 5800 5802 5803 5804 5803 5803 5804 5804 5805 5806 5808 5810 5813
5457 5459 5464 5471 5478 5487 5500 5505 5502 5505 5510 5515 5523 5522 5515 5511 5519 5537 5550 5553 5562 5577 5586 5593 5601 5607 5611 5615 5619 5625 5632 5636 5641 5646 5651 5655 5660 5666 5672 5679 5686 5695 5705 5710 5712 5716 5720 5725 5732 5736 5740 5743 5745 5748 5751 5754 5756 5757 5758 5760 5762 5766 5768 5770 5773 5775 5779 5781 5783 5785 5785 5789 5794 5793 5794 5797 5798 5799 5801 5799 5799 5800 5800 5801 5802 5803 5805 5807
5449 5452 5458 5465 5472 5484 5493 5494 5494 5499 5503 5508 5512 5507 5501 5505 5520 5536 5541 5547 5562 5575 5582 5591 5597 5601 5606 5610 5615 5622 5626 5631 5638 5642 5645 5650 5656 5663 5671 5678 5685 5692 5698 5703 5708 5714 5719 5725 5732 5736 5738 5740 5742 5746 5747 5748 5751 5752 5754 5756 5761 5765 5765 5767 5769 5772 5775 5776 5778 5781 5783 5787 5791 5790 5791 5793 5794 5795 5796 5796 5795 5796 5796 5797 5797 5798 5799 5801
5442 5447 5452 5457 5468 5482 5487 5486 5489 5493 5496 5499 5499 5493 5495 5507 5520 5529 5537 5548 5562 5571 5579 5587 5590 5594 5599 5602 5608 5615 5621 5629 5634 5636 5642 5649 5656 5664 5672 5678 5683 5688 5694 5699 5705 5711 5715 5721 5726 5729 5732 5734 5736 5739 5741 5743 5745 5747 5749 5754 5759 5760 5759 5762 5766 5768 5770 5771 5775 5779 5781 5785 5787 5787 5789 5790 5790 5791 5792 5792 5792 5792 5793 5793 5794 5794 5795 5796
5435 5442 5444 5451 5466 5477 5478 5482 5486 5488 5489 5489 5487 5487 5496 5509 5517 5526 5538 5551 5562 5570 5577 5581 5583 5588 5592 5595 5602 5609 5617 5626 5629 5631 5638 5645 5653 5661 5669 5675 5680 5687 5695 5700 5704 5708 5713 5718 5721 5724 5726 5729 5731 5733 5735 5737 5741 5744 5748 5753 5755 5754 5755 5759 5761 5763 5765 5767 5771 5775 5777 5781 5782 5784 5787 5786 5786 5787 5787 5788 5788 5788 5789 5789 5790 5791 5791 5792
5431 5434 5433 5445 5463 5469 5472 5478 5479 5479 5481 5479 5479 5487 5497 5505 5513 5525 5539 5549 5557 5565 5571 5577 5582 5586 5589 5595 5601 5607 5615 5620 5623 5629 5636 5642 5650 5659 5666 5673 5679 5686 5693 5697 5700 5705 5710 5714 5716 5719 5722 5724 5726 5728 5730 5735 5739 5743 5747 5749 5749 5750 5753 5756 5757 5760 5762 5764 5768 5771 5773 5776 5779 5782 5783 5782 5782 5783 5783 5783 5784 5784 5785 5785 5786 5786 5787 5788
5423 5421 5421 5441 5458 5460 5464 5469 5468 5470 5470 5466 5471 5482 5490 5499 5511 5523 5535 5544 5552 5560 5566 5574 5581 5585 5590 5597 5602 5608 5614 5616 5621 5629 5637 5644 5652 5659 5665 5671 5676 5682 5687 5691 5696 5700 5704 5707 5710 5713 5716 5717 5719 5722 5727 5733 5736 5739 5741 5743 5745 5747 5750 5752 5754 5757 5759 5761 5765 5767 5769 5774 5778 5779 5778 5778 5779 5779 5778 5778 5779 5780 5780 5781 5781 5782 5782 5783
5415 5410 5416 5439 5450 5450 5457 5459 5456 5456 5454 5456 5467 5480 5487 5497 5509 5519 5531 5541 5548 5556 5565 5572 5578 5583 5589 5595 5600 5606 5612 5616 5622 5630 5638 5647 5653 5658 5663 5668 5673 5677 5682 5686 5690 5695 5698 5701 5705 5708 5710 5712 5715 5720 5726 5729 5731 5734 5736 5738 5740 5742 5745 5747 5749 5753 5755 5757 5760 5762 5766 5772 5775 5774 5774 5774 5774 5774 5773 5774 5775 5776 5776 5777 5777 5777 5777 5778
5408 5402 5413 5435 5440 5442 5447 5443 5438 5441 5446 5455 5468 5479 5486 5496 5506 5515 5526 5539 5547 5556 5566 5572 5578 5584 5588 5591 5596 5603 5608 5614 5621 5629 5637 5643 5649 5654 5660 5664 5668 5673 5676 5679 5684 5689 5692 5696 5700 5702 5705 5709 5713 5718 5722 5723 5727 5730 5732 5735 5738 5739 5742 5744 5746 5750 5752 5753 5756 5758 5763 5769 5771 5770 5771 5771 5770 5770 5769 5769 5770 5771 5772 5773 5773 5773 5773 5774
5396 5396 5415 5431 5430 5433 5434 5429 5429 5438 5445 5452 5462 5474 5484 5494 5504 5512 5521 5533 5543 5551 5560 5568 5576 5581 5585 5589 5594 5601 5606 5613 5620 5627 5634 5641 5647 5653 5657 5660 5664 5668 5672 5676 5680 5684 5688 5691 5694 5697 5702 5706 5709 5713 5716 5718 5722 5725 5727 5732 5734 5735 5738 5741 5743 5747 5748 5749 5754 5755 5759 5765 5767 5765 5766 5767 5766 5765 5765 5764 5765 5765 5766 5768 5769 5769 5770 5771
5386 5396 5414 5422 5421 5425 5426 5422 5426 5433 5440 5451 5465 5476 5483 5490 5499 5508 5518 5529 5537 5544 5553 5562 5569 5574 5580 5586 5592 5596 5603 5612 5620 5626 5632 5639 5644 5649 5653 5657 5660 5663 5666 5670 5676 5680 5683 5685 5688 5693 5697 5700 5704 5708 5711 5714 5717 5720 5724 5727 5728 5730 5734 5736 5738 5741 5742 5746 5750 5751 5754 5761 5763 5761 5761 5762 5762 5761 5761 5760 5760 5760 5761 5763 5764 5766 5767 5768
5385 5395 5404 5408 5412 5416 5413 5410 5415 5425 5438 5452 5463 5470 5478 5487 5496 5504 5515 5524 5532 5541 5550 5556 5563 5571 5578 5584 5589 5595 5602 5609 5617 5624 5629 5634 5638 5643 5648 5653 5657 5660 5663 5668 5671 5675 5677 5678 5682 5687 5690 5693 5698 5702 5706 5710 5714 5717 5720 5721 5722 5726 5728 5729 5732 5734 5736 5742 5745 5745 5751 5758 5758 5755 5755 5758 5759 5758 5756 5757 5757 5756 5757 5758 5759 5761 5763 5764
5381 5385 5391 5398 5404 5405 5404 5408 5417 5428 5439 5447 5455 5463 5471 5481 5491 5502 5515 5525 5533 5542 5550 5556 5565 5572 5577 5583 5588 5594 5600 5607 5613 5619 5624 5628 5633 5639 5643 5648 5653 5657 5662 5666 5668 5671 5673 5675 5679 5682 5684 5689 5694 5698 5702 5707 5709 5711 5714 5715 5717 5720 5721 5724 5726 5727 5733 5740 5739 5741 5749 5753 5752 5751 5751 5754 5756 5754 5752 5752 5753 5753 5753 5754 5755 5756 5757 5759
5372 5374 5379 5387 5393 5397 5404 5412 5421 5429 5435 5441 5449 5457 5465 5475 5487 5500 5514 5524 5532 5540 5547 5555 5562 5566 5571 5578 5583 5588 5595 5603 5611 5616 5620 5625 5630 5636 5641 5646 5649 5653 5658 5661 5665 5669 5671 5675 5679 5682 5687 5692 5696 5699 5702 5704 5705 5706 5708 5710 5711 5713 5716 5718 5718 5723 5733 5736 5734 5739 5747 5748 5747 5748 5747 5748 5750 5750 5748 5748 5748 5748 5749 5750 5750 5750 5752 5754
5366 5367 5369 5375 5382 5389 5396 5402 5412 5423 5432 5438 5444 5450 5461 5474 5485 5496 5508 5518 5527 5534 5541 5548 5553 5558 5565 5572 5578 5586 5592 5599 5606 5613 5619 5623 5628 5633 5638 5643 5646 5650 5655 5658 5661 5665 5668 5672 5678 5682 5687 5692 5694 5697 5700 5702 5703 5704 5706 5708 5709 5711 5713 5714 5716 5726 5733 5731 5731 5740 5744 5743 5743 5743 5742 5743 5745 5744 5743 5743 5743 5743 5744 5744 5745 5746 5748 5749
5358 5361 5368 5374 5377 5381 5385 5390 5402 5417 5429 5438 5445 5452 5461 5471 5479 5489 5500 5510 5520 5528 5534 5540 5548 5557 5565 5571 5578 5584 5589 5595 5602 5610 5615 5620 5625 5630 5635 5640 5644 5649 5652 5655 5658 5662 5666 5671 5677 5680 5683 5686 5688 5692 5695 5697 5698 5699 5702 5705 5707 5709 5711 5713 5719 5727 5728 5726 5731 5738 5738 5737 5738 5737 5737 5738 5738 5738 5737 5737 5737 5738 5738 5739 5740 5742 5744 5746
5353 5358 5365 5372 5377 5382 5386 5392 5404 5416 5425 5434 5441 5449 5458 5466 5475 5486 5494 5502 5512 5522 5529 5537 5546 5555 5563 5569 5575 5580 5586 5592 5599 5606 5611 5616 5622 5626 5631 5636 5641 5645 5648 5652 5656 5660 5664 5669 5673 5676 5679 5681 5684 5687 5689 5691 5692 5694 5697 5699 5701 5704 5707 5712 5718 5721 5721 5723 5729 5731 5731 5732 5733 5732 5732 5732 5731 5731 5731 5731 5732 5732 5733 5735 5737 5740 5742 5742
5351 5354 5359 5366 5375 5382 5387 5393 5403 5412 5421 5429 5436 5445 5456 5465 5473 5483 5492 5499 5507 5515 5524 5536 5547 5557 5564 5568 5573 5580 5588 5595 5600 5605 5609 5612 5616 5621 5626 5631 5637 5641 5644 5648 5652 5657 5661 5665 5668 5671 5673 5675 5678 5681 5683 5685 5687 5690 5692 5694 5697 5702 5706 5710 5714 5714 5715 5720 5723 5723 5724 5727 5728 5727 5728 5727 5724 5724 5724 5726 5726 5727 5730 5732 5734 5736 5737 5737
5351 5355 5360 5367 5372 5377 5383 5390 5399 5407 5414 5421 5430 5441 5451 5461 5471 5482 5492 5503 5512 5520 5528 5539 5549 5558 5564 5569 5574 5582 5590 5597 5603 5606 5607 5609 5612 5616 5620 5625 5631 5636 5640 5643 5647 5652 5656 5659 5662 5665 5667 5669 5673 5675 5676 5679 5682 5683 5685 5690 5696 5700 5703 5706 5708 5709 5712 5716 5717 5717 5720 5723 5724 5724 5724 5721 5719 5719 5720 5721 5722 5724 5727 5728 5729 5730 5731 5732
5349 5353 5359 5366 5370 5375 5381 5388 5396 5402 5407 5415 5428 5439 5449 5460 5473 5483 5493 5503 5515 5527 5537 5546 5552 5557 5562 5567 5574 5582 5588 5592 5597 5601 5605 5610 5613 5617 5622 5626 5630 5634 5637 5641 5644 5648 5652 5655 5658 5661 5662 5665 5668 5669 5671 5673 5673 5675 5683 5692 5695 5697 5698 5700 5702 5705 5708 5710 5710 5712 5717 5719 5719 5720 5720 5717 5716 5716 5716 5717 5717 5719 5722 5724 5726 5727 5727 5727